Weather History for KD50 - January, 2014

Change the Weather History Date:

Wednesday, January 22, 2014

  Actual Average (KISN) Record (KISN)
Temperature  
Mean Temperature 3 °F 11 °F  
Max Temperature 19 °F 22 °F 47 °F (1981)
Min Temperature -13 °F 0 °F -34 °F (1922)
Degree Days  
Heating Degree Days 62 54  
Month to date heating degree days 1198  
Since 1 July heating degree days 4945  
Cooling Degree Days 0 0  
Month to date cooling degree days 0  
Year to date cooling degree days 0  
Moisture  
Dew Point -10 °F    
Average Humidity 75    
Maximum Humidity 93    
Minimum Humidity 65    
Precipitation  
Precipitation 0.42 in 0.02 in 0.38 in (1896)
Month to date precipitation 0.45  
Year to date precipitation 0.45  
Sea Level Pressure  
Sea Level Pressure 30.47 in    
Wind  
Wind Speed 14 mph (NNW)    
Max Wind Speed 29 mph    
Max Gust Speed 37 mph    
Visibility 10 miles    
Events Rain , Snow    
T = Trace of Precipitation, MM = Missing Value Source: NWS Daily Summary

Daily Weather History Graph

Daily Weather History Graph

Search for Another Location

Airport or City:

Trip Planner

Search our weather history database for the weather conditions in past years. The results will help you decide how hot, cold, wet, or windy it might be!

Date:

Astronomy

Jan. 22, 2014 Rise Set
Actual Time 8:35 AM CST 5:34 PM CST
Civil Twilight 8:00 AM CST 6:09 PM CST
Nautical Twilight 7:21 AM CST 6:48 PM CST
Astronomical Twilight 6:44 AM CST 7:26 PM CST
Moon No Moon Rise 11:02 AM CST (1/22)
Length of Visible Light 10h 09m
Length of Day
8h 59m
Waning Gibbous, 65% of the Moon is Illuminated
Jan 22
Waning Gibbous
Jan 23
Last Quarter
Jan 30
New
Feb 6
First Quarter
Feb 14
Full

Hourly Weather History & Observations

Time (CST) Temp. Windchill Dew Point Humidity Pressure Visibility Wind Dir Wind Speed Gust Speed Precip Events Conditions
12:15 AM 19.4 °F 2.1 °F 17.6 °F 93% 30.10 in 10.0 mi NNW 24.2 mph 31.1 mph N/A Snow Light Snow
12:35 AM 19.4 °F 3.2 °F 15.8 °F 86% 30.11 in 7.0 mi NNW 20.7 mph 31.1 mph 0.02 in Snow Light Snow
12:55 AM 17.6 °F -0.6 °F 14.0 °F 86% 30.13 in 10.0 mi NNW 25.3 mph 32.2 mph 0.27 in Snow Light Snow
1:15 AM 17.6 °F -0.3 °F 14.0 °F 86% 30.14 in 3.0 mi North 24.2 mph 34.5 mph 0.08 in Snow Light Snow
1:35 AM 14.0 °F -6.5 °F 8.6 °F 79% 30.17 in 3.0 mi North 28.8 mph 36.8 mph 0.15 in Snow Light Snow
1:55 AM 10.4 °F -8.6 °F 6.8 °F 85% 30.19 in 10.0 mi NNE 20.7 mph 31.1 mph 0.15 in Rain Light Freezing Rain
2:15 AM 10.4 °F -8.2 °F 6.8 °F 85% 30.20 in 9.0 mi NNE 19.6 mph - N/A Snow Light Snow
2:35 AM 8.6 °F -10.5 °F 5.0 °F 85% 30.21 in 9.0 mi NNE 19.6 mph 28.8 mph N/A Rain Light Freezing Rain
2:55 AM 6.8 °F -13.8 °F 1.4 °F 79% 30.23 in 10.0 mi NNE 21.9 mph 25.3 mph N/A   Unknown
3:15 AM 5.0 °F -16.2 °F -0.4 °F 78% 30.26 in 10.0 mi North 21.9 mph 28.8 mph N/A   Unknown
3:35 AM 1.4 °F -21.4 °F -4.0 °F 78% 30.28 in - NNE 23.0 mph 27.6 mph N/A   Unknown
3:55 AM -0.4 °F -21.7 °F -5.8 °F 78% 30.29 in - North 18.4 mph 26.5 mph N/A   Unknown
4:15 AM -0.4 °F -21.2 °F -5.8 °F 78% 30.31 in - North 17.3 mph 21.9 mph N/A   Unknown
4:35 AM -0.4 °F -21.2 °F -7.6 °F 72% 30.33 in - North 17.3 mph 23.0 mph N/A   Unknown
4:55 AM -2.2 °F -23.5 °F -7.6 °F 78% 30.34 in - North 17.3 mph - N/A   Unknown
5:15 AM -2.2 °F -18.9 °F -7.6 °F 78% 30.36 in - North 10.4 mph - N/A   Unknown
5:35 AM -2.2 °F -18.9 °F -9.4 °F 71% 30.38 in 10.0 mi North 10.4 mph - N/A   Unknown
5:55 AM -4.0 °F -21.2 °F -9.4 °F 78% 30.38 in 10.0 mi North 10.4 mph - N/A   Unknown
6:15 AM -4.0 °F -21.2 °F -9.4 °F 78% 30.40 in 10.0 mi North 10.4 mph - N/A   Unknown
6:35 AM -4.0 °F -23.7 °F -11.2 °F 71% 30.41 in - North 13.8 mph - N/A   Unknown
6:55 AM -5.8 °F -23.4 °F -11.2 °F 77% 30.41 in - North 10.4 mph - N/A   Unknown
7:15 AM - - - N/A% 30.42 in - North 9.2 mph - N/A   Unknown
7:35 AM -7.6 °F -22.1 °F -13.0 °F 77% 30.43 in 10.0 mi North 6.9 mph - N/A   Unknown
7:55 AM -9.4 °F -25.6 °F -13.0 °F 84% 30.44 in 10.0 mi North 8.1 mph - N/A   Unknown
8:15 AM -9.4 °F -26.8 °F -14.8 °F 77% 30.45 in 10.0 mi NNW 9.2 mph - N/A   Unknown
8:35 AM -9.4 °F -26.8 °F -16.6 °F 71% 30.46 in - North 9.2 mph - N/A   Unknown
8:55 AM -11.2 °F -24.8 °F -16.6 °F 77% 30.48 in 10.0 mi NW 5.8 mph - N/A   Unknown
9:15 AM -9.4 °F -24.3 °F -16.6 °F 71% 30.49 in 10.0 mi North 6.9 mph - N/A   Unknown
9:35 AM -9.4 °F -25.6 °F -14.8 °F 77% 30.49 in 10.0 mi North 8.1 mph - N/A   Unknown
9:55 AM -7.6 °F -23.4 °F -14.8 °F 71% 30.51 in 10.0 mi North 8.1 mph - N/A   Unknown
10:15 AM -7.6 °F -24.6 °F -13.0 °F 77% 30.51 in 10.0 mi North 9.2 mph - N/A   Unknown
10:35 AM -7.6 °F -23.4 °F -13.0 °F 77% 30.52 in 10.0 mi North 8.1 mph - N/A   Unknown
10:55 AM -5.8 °F -19.9 °F -13.0 °F 71% 30.52 in 10.0 mi North 6.9 mph - N/A   Unknown
11:15 AM -5.8 °F -18.4 °F -13.0 °F 71% 30.53 in 10.0 mi North 5.8 mph - N/A   Unknown
11:35 AM -4.0 °F -14.6 °F -13.0 °F 65% 30.53 in 10.0 mi NNE 4.6 mph - N/A   Unknown
11:55 AM -4.0 °F - -13.0 °F 65% 30.54 in 10.0 mi Calm Calm - N/A   Unknown
12:15 PM -4.0 °F -14.6 °F -13.0 °F 65% 30.53 in 10.0 mi North 4.6 mph - N/A   Unknown
12:35 PM -4.0 °F -12.4 °F -13.0 °F 65% 30.54 in 10.0 mi North 3.5 mph - N/A   Unknown
12:55 PM -4.0 °F -14.6 °F -11.2 °F 71% 30.54 in 10.0 mi North 4.6 mph - N/A   Unknown
1:15 PM -4.0 °F -14.6 °F -11.2 °F 71% 30.54 in 10.0 mi North 4.6 mph - N/A   Unknown
1:35 PM -2.2 °F -10.4 °F -11.2 °F 66% 30.54 in 10.0 mi North 3.5 mph - N/A   Unknown
1:55 PM -2.2 °F -12.5 °F -11.2 °F 66% 30.54 in 10.0 mi North 4.6 mph - N/A   Unknown
2:15 PM -2.2 °F -10.4 °F -11.2 °F 66% 30.54 in 10.0 mi North 3.5 mph - N/A   Unknown
2:35 PM -2.2 °F -10.4 °F -11.2 °F 66% 30.55 in 10.0 mi North 3.5 mph - N/A   Unknown
2:55 PM -2.2 °F -16.8 °F -11.2 °F 66% 30.54 in 10.0 mi North 8.1 mph - N/A   Unknown
3:15 PM -2.2 °F -16.8 °F -9.4 °F 71% 30.55 in 10.0 mi NNW 8.1 mph - N/A   Unknown
3:35 PM -2.2 °F -15.6 °F -11.2 °F 66% 30.55 in 10.0 mi NNW 6.9 mph - N/A   Unknown
3:55 PM -2.2 °F -14.2 °F -11.2 °F 66% 30.56 in 10.0 mi NW 5.8 mph - N/A   Unknown
4:15 PM -2.2 °F -15.6 °F -11.2 °F 66% 30.57 in 10.0 mi NNW 6.9 mph - N/A   Unknown
4:35 PM -2.2 °F -14.2 °F -11.2 °F 66% 30.57 in 10.0 mi NNW 5.8 mph - N/A   Unknown
4:55 PM -4.0 °F -16.3 °F -11.2 °F 71% 30.58 in 10.0 mi NNW 5.8 mph - N/A   Unknown
5:15 PM -4.0 °F -17.8 °F -11.2 °F 71% 30.60 in 10.0 mi NNW 6.9 mph - N/A   Unknown
5:35 PM -7.6 °F -22.1 °F -13.0 °F 77% 30.60 in 10.0 mi North 6.9 mph - N/A   Unknown
5:55 PM -9.4 °F -20.9 °F -13.0 °F 84% 30.61 in 10.0 mi North 4.6 mph - N/A   Unknown
6:15 PM -9.4 °F -22.7 °F -14.8 °F 77% 30.62 in 10.0 mi NNW 5.8 mph - N/A   Unknown
6:35 PM -9.4 °F -20.9 °F -14.8 °F 77% 30.62 in 10.0 mi NW 4.6 mph - N/A   Unknown
6:55 PM -11.2 °F -20.6 °F -16.6 °F 77% 30.63 in 10.0 mi West 3.5 mph - N/A   Unknown
7:15 PM -11.2 °F -20.6 °F -16.6 °F 77% 30.63 in 10.0 mi NW 3.5 mph - N/A   Unknown
7:35 PM -13.0 °F -22.7 °F -18.4 °F 77% 30.63 in 10.0 mi WNW 3.5 mph - N/A   Unknown
7:55 PM -13.0 °F -27.0 °F -18.4 °F 77% 30.64 in 10.0 mi West 5.8 mph - N/A   Unknown
8:15 PM -13.0 °F -25.1 °F -18.4 °F 77% 30.65 in - West 4.6 mph - N/A   Unknown
9:15 PM - - - N/A% - - North - - N/A   Unknown
9:35 PM -13.0 °F -25.1 °F -18.4 °F 77% 30.63 in - SW 4.6 mph - N/A   Unknown
9:55 PM -13.0 °F -22.7 °F -18.4 °F 77% 30.64 in - SW 3.5 mph - N/A   Unknown
10:15 PM -13.0 °F -27.0 °F -18.4 °F 77% 30.63 in - SW 5.8 mph - N/A   Unknown
10:35 PM -13.0 °F -22.7 °F -18.4 °F 77% 30.63 in 10.0 mi South 3.5 mph - N/A   Unknown
10:55 PM -13.0 °F -27.0 °F -18.4 °F 77% 30.63 in - SSW 5.8 mph - N/A   Unknown
11:15 PM -13.0 °F -25.1 °F -18.4 °F 77% 30.63 in - SSW 4.6 mph - N/A   Unknown
11:35 PM -13.0 °F -25.1 °F -18.4 °F 77% 30.63 in - SSW 4.6 mph - N/A   Unknown
11:55 PM -13.0 °F -27.0 °F -18.4 °F 77% 30.64 in 10.0 mi SW 5.8 mph - N/A   Unknown